Location: Rumah Long Bangan
(2.8362°N, 113.7519°E)
Time: 05:20:55
(UTC+00:00)

Cosmos 2297 Rocket - Pass Details

Date: 24 October 2021
Orbit: 839 x 843 km, 71.0° (Epoch: 28 November)

Event Time Altitude Azimuth Distance (km) Brightness Sun altitude
Rises 21:25:38 0° 193° (SSW) 3,388 5.3 -11.2°
Reaches altitude 10° 21:28:04 10° 192° (SSW) 2,452 4.6 -10.6°
Maximum altitude 21:33:42 81° 105° (ESE) 850 2.3 -9.2°
Drops below altitude 10° 21:39:19 10° 18° (NNE) 2,444 4.7 -7.9°
Sets 21:41:45 0° 17° (NNE) 3,376 5.4 -7.3°
